Weather reports worldwide

Advertisment
A12-CPP, Netherlands (6205): temperature & dewpoint: 09.08.2020 22:00:00 - 15.08.2020 22:00:00 (CEST)A12-CPP, Netherlands (6205): wind speed & gusts: 09.08.2020 22:00:00 - 15.08.2020 22:00:00 (CEST)A12-CPP, Netherlands (6205): wind direction: 09.08.2020 22:00:00 - 15.08.2020 22:00:00 (CEST)A12-CPP, Netherlands (6205): reduced air pressure: 09.08.2020 22:00:00 - 15.08.2020 22:00:00 (CEST)A12-CPP, Netherlands (6205): visibility: 09.08.2020 22:00:00 - 15.08.2020 22:00:00 (CEST)
Date & Time tt [°C] td [°C] ff [km/h] ff [kn] fx [km/h] fx [kn] dd ppp [hPa] vv [km]
15.08.2020 22:00:00 15,1 12,8 24 13 29 16 ENE 1017,7 10
15.08.2020 21:00:00 15,2 12,7 26 14 29 16 ENE 1017,5 10
15.08.2020 20:00:00 15,2 12,5 22 12 25 14 NE 1017,5 10
15.08.2020 19:00:00 15,3 12,5 16 9 25 14 NE 1017,7 10
15.08.2020 18:00:00 15,6 12,7 21 11 25 14 NE 1018,0 10
15.08.2020 17:00:00 15,5 12,5 16 9 22 12 NE 1018,4 10
15.08.2020 16:00:00 15,8 12,9 21 11 25 14 ENE 1018,5 10
15.08.2020 15:00:00 15,8 12,8 22 12 25 14 ENE 1018,5 10
15.08.2020 14:00:00 15,6 12,7 26 14 25 14 ENE 1018,5 10
15.08.2020 13:00:00 15,8 13,3 22 12 25 14 NE 1018,6 10
15.08.2020 12:00:00 15,6 12,7 21 11 22 12 NE 1018,6 10
15.08.2020 11:00:00 15,2 12,4 24 13 25 14 ENE 1018,4 10
15.08.2020 10:00:00 15,0 12,4 22 12 29 16 NE 1018,3 10
15.08.2020 09:00:00 15,2 12,7 14 8 29 16 NE 1017,9 49
15.08.2020 08:00:00 15,3 12,9 21 11 25 14 NE 1017,8 10
15.08.2020 07:00:00 15,6 13,2 26 14 25 14 NE 1017,6 10
15.08.2020 06:00:00 15,4 13,1 24 13 25 14 ENE 1017,5 10
15.08.2020 05:00:00 15,8 13,3 26 14 29 16 ENE 1017,6 10
15.08.2020 04:00:00 16,3 13,9 29 16 29 16 NE 1017,4 10
15.08.2020 03:00:00 16,0 13,7 31 17 32 18 NNE 1017,4 10
15.08.2020 02:00:00 16,4 14,5 24 13 25 14 NNE 1017,5 10
15.08.2020 01:00:00 16,8 14,8 28 15 29 16 NNE 1017,1 10
15.08.2020 00:00:00 16,9 14,9 24 13 29 16 NE 1017,1 10
14.08.2020 23:00:00 16,9 14,8 26 14 29 16 NE 1017,0 10
14.08.2020 22:00:00 16,8 15,3 26 14 25 14 ENE 1017,0 10
14.08.2020 21:00:00 16,7 15,4 26 14 25 14 NE 1016,6 10
14.08.2020 20:00:00 16,7 15,3 22 12 25 14 ENE 1016,5 10
14.08.2020 19:00:00 16,9 15,4 29 16 29 16 NE 1015,9 10
14.08.2020 18:00:00 16,4 15,3 29 16 29 16 NE 1015,8 10
14.08.2020 17:00:00 16,2 15,3 29 16 29 16 NE 1015,7 7
14.08.2020 16:00:00 16,2 15,4 31 17 32 18 NE 1015,6 5
14.08.2020 15:00:00 15,8 15,5 22 12 25 14 NE 1015,7 0,7
14.08.2020 14:00:00 15,8 15,7 24 13 25 14 ENE 1015,6 0,2
14.08.2020 13:00:00 15,7 15,6 26 14 29 16 NE 1015,4 0,1
14.08.2020 12:00:00 15,9 15,8 26 14 25 14 NE 1015,6 0,1
14.08.2020 11:00:00 15,9 15,8 28 15 25 14 NE 1015,6 0,1
14.08.2020 10:00:00 16,2 15,8 22 12 25 14 NE 1015,2 0,1
14.08.2020 09:00:00 17,1 16,2 28 15 25 14 NE 1014,8 10
14.08.2020 08:00:00 17,9 16,4 21 11 22 12 ENE 1014,7 10
14.08.2020 07:00:00 18,6 15,9 24 13 22 12 ENE 1014,7 10
14.08.2020 06:00:00 18,4 16,2 26 14 25 14 E 1014,7 10
14.08.2020 05:00:00 18,8 16,4 29 16 29 16 ENE 1014,5 10
14.08.2020 04:00:00 18,3 16,9 28 15 25 14 ENE 1014,8 10
14.08.2020 03:00:00 18,3 17,3 26 14 25 14 ENE 1015,0 10
14.08.2020 02:00:00 18,6 17,0 24 13 25 14 ENE 1015,1 10
14.08.2020 01:00:00 19,2 17,3 16 9 18 10 E 1015,5 10
14.08.2020 00:00:00 19,0 17,2 15 8 18 10 E 1015,3 10
13.08.2020 23:00:00 18,7 17,4 16 9 18 10 ENE 1015,2 10
13.08.2020 22:00:00 18,9 17,2 16 9 18 10 E 1015,2 10
13.08.2020 21:00:00 19,4 17,4 21 11 18 10 E 1014,9 10
13.08.2020 20:00:00 20,1 17,7 21 11 18 10 E 1014,6 10
13.08.2020 19:00:00 19,5 17,5 18 10 18 10 E 1014,5 10
13.08.2020 18:00:00 19,2 17,4 15 8 18 10 ESE 1014,8 10
13.08.2020 17:00:00 19,0 17,4 18 10 18 10 E 1015,1 10
13.08.2020 16:00:00 19,1 17,1 11 6 14 8 ESE 1015,2 10
13.08.2020 15:00:00 18,9 17,1 9 5 18 10 ESE 1015,2 10
13.08.2020 14:00:00 18,9 16,9 15 8 18 10 E 1015,1 10
13.08.2020 13:00:00 18,9 17,1 18 10 22 12 ESE 1015,0 10
13.08.2020 12:00:00 18,9 17,0 18 10 22 12 ESE 1014,8 10
13.08.2020 11:00:00 18,8 16,9 21 11 22 12 ESE 1014,7 10
13.08.2020 10:00:00 18,7 16,8 21 11 22 12 ESE 1014,8 10
13.08.2020 09:00:00 18,9 16,7 24 13 22 12 ESE 1014,6 10
13.08.2020 08:00:00 19,1 16,6 18 10 22 12 ESE 1014,5 10
13.08.2020 07:00:00 19,1 16,7 18 10 25 14 SE 1014,4 10
13.08.2020 06:00:00 19,2 16,8 22 12 29 16 ESE 1014,2 10
13.08.2020 05:00:00 19,4 16,8 31 17 32 18 ESE 1014,3 10
13.08.2020 04:00:00 19,4 17,0 29 16 29 16 ESE 1014,5 10
13.08.2020 03:00:00 19,3 17,2 21 11 22 12 ESE 1015,2 10
13.08.2020 02:00:00 19,5 17,3 13 7 22 12 ESE 1015,8 10
13.08.2020 01:00:00 19,4 17,5 9 5 25 14 - 1016,1 10
13.08.2020 00:00:00 19,4 17,7 26 14 25 14 SSE 1016,1 10
12.08.2020 23:00:00 19,2 17,8 9 5 22 12 ESE 1016,0 10
12.08.2020 22:00:00 18,9 17,7 9 5 18 10 - 1015,9 10
12.08.2020 21:00:00 18,9 17,3 9 5 25 14 - 1016,0 10
12.08.2020 20:00:00 19,2 17,1 18 10 25 14 SE 1015,6 10
12.08.2020 19:00:00 19,2 17,2 21 11 29 16 SE 1015,9 10
12.08.2020 18:00:00 18,7 17,2 24 13 29 16 ESE 1016,2 10
12.08.2020 17:00:00 18,5 17,2 26 14 32 18 ESE 1016,8 10
12.08.2020 16:00:00 18,6 17,0 29 16 32 18 SE 1016,5 10
12.08.2020 15:00:00 18,5 17,0 29 16 32 18 ESE 1017,0 10
12.08.2020 14:00:00 18,6 17,0 29 16 32 18 ESE 1016,7 10
12.08.2020 13:00:00 18,5 17,0 28 15 29 16 SE 1017,2 10
12.08.2020 12:00:00 18,6 17,0 29 16 29 16 SSE 1017,6 10
12.08.2020 11:00:00 18,8 17,0 34 18 32 18 SSE 1017,4 10
12.08.2020 10:00:00 18,7 16,9 24 13 29 16 SE 1017,0 10
12.08.2020 09:00:00 18,8 16,9 28 15 32 18 ESE 1016,5 10
12.08.2020 08:00:00 19,0 16,9 37 20 43 23 ESE 1016,3 10
12.08.2020 07:00:00 19,0 16,9 36 19 43 23 ESE 1016,3 26
12.08.2020 06:00:00 19,0 16,7 42 23 47 25 ESE 1016,2 10
12.08.2020 05:00:00 19,3 16,7 46 25 47 25 ESE 1016,5 10
12.08.2020 04:00:00 19,3 16,8 48 26 47 25 ESE 1016,7 10
12.08.2020 03:00:00 19,3 16,9 48 26 47 25 ESE 1017,1 10
12.08.2020 02:00:00 19,2 17,1 50 27 54 29 E 1017,7 10
12.08.2020 01:00:00 19,2 17,3 43 23 47 25 E 1018,4 19
12.08.2020 00:00:00 18,8 17,1 46 25 47 25 E 1018,6 10
11.08.2020 23:00:00 18,8 17,0 44 24 43 23 E 1018,6 10
11.08.2020 22:00:00 18,6 17,2 44 24 43 23 E 1018,6 10
11.08.2020 21:00:00 18,3 17,1 48 26 47 25 E 1018,3 10
11.08.2020 20:00:00 18,2 17,2 48 26 43 23 E 1018,2 10
11.08.2020 19:00:00 18,5 17,4 44 24 40 21 E 1018,6 10
11.08.2020 18:00:00 18,4 17,4 41 22 40 21 E 1019,0 10
11.08.2020 17:00:00 18,2 17,4 41 22 40 21 E 1019,4 10
11.08.2020 16:00:00 18,2 17,4 44 24 40 21 E 1019,6 10
11.08.2020 15:00:00 18,2 17,4 41 22 40 21 E 1019,9 10
11.08.2020 14:00:00 18,1 17,3 41 22 40 21 E 1020,1 10
11.08.2020 13:00:00 18,1 17,3 42 23 43 23 E 1020,2 10
11.08.2020 12:00:00 17,9 17,1 42 23 43 23 E 1020,1 10
11.08.2020 11:00:00 17,9 17,1 42 23 40 21 E 1020,1 10
11.08.2020 10:00:00 17,7 16,8 44 24 43 23 E 1019,9 10
11.08.2020 09:00:00 18,0 16,9 42 23 40 21 E 1019,7 10
11.08.2020 08:00:00 17,9 16,8 42 23 40 21 E 1019,6 10
11.08.2020 07:00:00 17,9 16,6 44 24 43 23 E 1019,8 10
11.08.2020 06:00:00 17,9 16,4 44 24 43 23 E 1019,2 10
11.08.2020 05:00:00 17,9 16,2 41 22 43 23 E 1019,3 10
11.08.2020 04:00:00 18,0 16,3 41 22 47 25 E 1019,2 10
11.08.2020 03:00:00 18,2 16,3 40 21 47 25 E 1019,2 17
11.08.2020 02:00:00 18,1 16,1 50 27 47 25 E 1019,4 10
11.08.2020 01:00:00 18,2 16,2 42 23 47 25 E 1019,8 10
11.08.2020 00:00:00 18,0 16,1 46 25 43 23 E 1020,1 10
10.08.2020 23:00:00 18,0 16,0 41 22 43 23 E 1019,9 10
10.08.2020 22:00:00 17,7 16,2 46 25 47 25 E 1019,3 10
10.08.2020 21:00:00 17,8 15,8 44 24 43 23 E 1019,0 10
10.08.2020 20:00:00 18,3 14,2 42 23 40 21 E 1019,1 10
10.08.2020 19:00:00 18,3 13,3 41 22 40 21 E 1019,0 10
10.08.2020 18:00:00 17,8 15,1 39 21 36 19 E 1019,3 10
10.08.2020 17:00:00 17,8 15,0 39 21 36 19 E 1019,4 10
10.08.2020 16:00:00 18,5 14,0 46 25 43 23 E 1019,6 10
10.08.2020 15:00:00 18,8 12,0 44 24 47 25 E 1020,0 10
10.08.2020 14:00:00 18,7 11,3 50 27 47 25 E 1019,8 10
10.08.2020 13:00:00 17,7 13,3 44 24 43 23 E 1020,1 10
10.08.2020 12:00:00 17,1 14,1 39 21 43 23 E 1020,3 10
10.08.2020 11:00:00 17,0 14,0 42 23 40 21 ENE 1020,2 10
10.08.2020 10:00:00 16,9 14,0 37 20 40 21 ENE 1020,2 10
10.08.2020 09:00:00 16,7 14,6 37 20 36 19 ENE 1020,1 10
10.08.2020 08:00:00 16,5 14,5 35 19 36 19 ENE 1020,1 10
10.08.2020 07:00:00 16,3 14,2 35 19 36 19 ENE 1020,1 10
10.08.2020 06:00:00 16,2 14,1 35 19 32 18 ENE 1020,3 10
10.08.2020 05:00:00 16,2 13,5 29 16 32 18 ENE 1020,5 24
10.08.2020 04:00:00 16,0 14,1 35 19 32 18 ENE 1020,8 10
10.08.2020 03:00:00 16,0 14,3 37 20 36 19 ENE 1020,8 10
10.08.2020 02:00:00 15,9 14,1 31 17 32 18 ENE 1021,0 10
10.08.2020 01:00:00 15,9 14,1 37 20 36 19 ENE 1021,3 10
10.08.2020 00:00:00 15,9 13,8 31 17 36 19 ENE 1021,7 10
09.08.2020 23:00:00 15,9 13,8 39 21 40 21 ENE 1021,6 10
09.08.2020 22:00:00 15,8 13,7 34 18 36 19 ENE 1021,9 10

tt = temperature
td = dewpoint
ff = wind speed
fx = gusts
dd = wind direction
ppp = reduced air pressure
vv = visibility

Next stations